GW4551 Weather Reports


time (UTC)temp
F
wind
direction
speed
knots
gust
knots
rain 1hr
in
rain 24hr
in
rain mn
in
humidity
%
barometer
mb
20260507102535 56 35 0.9 3.5 0.00 0.00 0.00 51 1016.2
20260507101530 56 337 1.7 2.6 0.00 0.00 0.00 49 1016.3
20260507100607 59 203 0.9 2.6 0.00 0.00 0.00 48 1016.2
20260507095602 59 121 0.0 1.7 0.00 0.00 0.00 51 1016.3
20260507094518 56 343 1.7 2.6 0.00 0.00 0.00 54 1016.3
20260507093534 58 338 1.7 5.2 0.00 0.00 0.00 51 1016.3
20260507092530 58 79 0.9 2.6 0.00 0.00 0.00 51 1016.3
20260507091527 57 154 0.0 1.7 0.00 0.00 0.00 50 1016.3
20260507090523 56 106 0.9 2.6 0.00 0.00 0.00 60 1016.3
20260507085518 56 96 0.9 3.5 0.00 0.00 0.00 66 1016.3
20260507084534 55 175 0.9 1.7 0.00 0.00 0.00 67 1016.5
20260507083531 54 190 0.9 2.6 0.00 0.00 0.00 70 1016.4
20260507082526 54 130 0.9 3.5 0.00 0.00 0.00 72 1016.3
20260507081602 54 89 0.0 1.7 0.00 0.00 0.00 73 1016.3
20260507080517 53 105 0.0 1.7 0.00 0.00 0.00 75 1016.3
20260507075533 51 124 0.0 1.7 0.00 0.00 0.00 80 1016.2
20260507074528 50 171 0.9 1.7 0.00 0.00 0.00 81 1016.2
20260507073524 49 62 0.0 1.7 0.00 0.00 0.00 85 1016.2
20260507072520 48 144 0.0 0.9 0.00 0.00 0.00 87 1016.2
20260507071535 46 341 0.0 0.9 0.00 0.00 0.00 90 1016.1
20260507070530 45 26 0.0 1.7 0.00 0.00 0.00 91 1016.0
20260507065526 44 349 0.9 1.7 0.00 0.00 0.00 92 1016.1
20260507064522 43 343 0.9 1.7 0.00 0.00 0.00 94 1016.1
20260507063558 44 8 0.9 1.7 0.00 0.00 0.00 95 1016.1
20260507062534 43 35 0.9 1.7 0.00 0.00 0.00 96 1016.0
20260507061530 42 39 0.0 0.9 0.00 0.00 0.00 96 1016.0
20260507060525 41 327 0.0 0.9 0.00 0.00 0.00 96 1016.1
20260507055521 41 0.0 0.0 0.00 0.00 0.00 95 1015.9
20260507054558 40 0.0 0.0 0.00 0.00 0.00 95 1015.9
20260507053533 40 346 0.9 0.9 0.00 0.00 0.00 95 1015.7
20260507052529 40 0.0 0.0 0.00 0.00 0.00 95 1015.7
20260507051525 40 347 0.0 0.9 0.00 0.00 0.00 95 1015.7
20260507050520 40 341 0.0 0.9 0.00 0.00 0.00 95 1015.6
20260507045516 40 338 0.9 0.9 0.00 0.00 0.00 95 1015.5
20260507044531 40 335 0.9 0.9 0.00 0.00 0.00 95 1015.5
20260507043528 40 330 0.9 0.9 0.00 0.00 0.00 95 1015.5
20260507042604 40 332 0.9 0.9 0.00 0.00 0.00 95 1015.5
20260507041520 40 337 0.9 1.7 0.00 0.00 0.00 95 1015.5
20260507040615 40 336 1.7 1.7 0.00 0.00 0.00 95 1015.5
20260507035530 40 339 1.7 1.7 0.00 0.00 0.00 94 1015.6
20260507034526 40 344 0.9 1.7 0.00 0.00 0.00 94 1015.5
20260507033522 40 339 1.7 2.6 0.00 0.00 0.00 94 1015.5
20260507032559 40 336 1.7 2.6 0.00 0.00 0.00 94 1015.5
20260507031534 40 335 0.9 1.7 0.00 0.00 0.00 94 1015.5
20260507030530 40 336 0.9 1.7 0.00 0.00 0.00 93 1015.5
20260507025525 41 334 1.7 1.7 0.00 0.00 0.00 93 1015.5
20260507024521 41 342 1.7 1.7 0.00 0.00 0.00 93 1015.4
20260507023517 41 340 0.9 1.7 0.00 0.00 0.00 93 1015.3
20260507022533 41 337 1.7 1.7 0.00 0.00 0.00 92 1015.4
20260507021609 41 337 1.7 2.6 0.00 0.00 0.00 92 1015.3
20260507020524 41 339 1.7 1.7 0.00 0.00 0.00 91 1015.3
20260507015520 41 336 1.7 2.6 0.00 0.00 0.00 91 1015.2
20260507014517 41 335 2.6 2.6 0.00 0.00 0.00 90 1015.2
20260507013533 41 341 1.7 2.6 0.00 0.00 0.00 90 1015.1
20260507012528 41 337 1.7 2.6 0.00 0.00 0.00 89 1015.1
20260507011524 42 341 2.6 2.6 0.00 0.00 0.00 88 1015.2
20260507010520 42 340 2.6 2.6 0.00 0.00 0.00 87 1015.3
20260507005536 42 340 1.7 2.6 0.00 0.00 0.00 87 1015.2
20260507004532 42 339 1.7 2.6 0.00 0.00 0.00 86 1015.3
20260507003527 42 340 1.7 2.6 0.00 0.00 0.00 85 1015.3
20260507002602 43 343 1.7 2.6 0.00 0.00 0.00 84 1015.3
20260507001518 43 338 1.7 2.6 0.00 0.00 0.00 83 1015.3
20260507000534 44 341 1.7 2.6 0.00 0.00 0.00 82 1015.3
20260506235530 44 338 0.9 1.7 0.00 0.00 0.00 81 1015.4
20260506234526 44 330 0.9 1.7 0.00 0.00 0.00 80 1015.2
20260506233522 44 326 0.0 0.9 0.00 0.00 0.00 80 1015.1
20260506232517 46 340 0.9 1.7 0.00 0.00 0.00 78 1015.2
20260506231534 46 29 0.9 1.7 0.00 0.00 0.00 77 1014.9
20260506230529 46 32 1.7 1.7 0.00 0.00 0.00 77 1015.1
20260506225526 46 352 0.9 0.9 0.00 0.00 0.00 76 1015.1
20260506224521 46 337 1.7 2.6 0.00 0.00 0.00 75 1015.1
20260506223517 46 337 1.7 1.7 0.00 0.00 0.00 74 1015.1
20260506222532 47 352 0.9 1.7 0.00 0.00 0.00 73 1015.1
20260506221528 47 35 1.7 1.7 0.00 0.00 0.00 72 1015.0
20260506220536 47 20 0.9 1.7 0.00 0.00 0.00 71 1014.9
20260506215530 47 355 0.9 0.9 0.00 0.00 0.00 70 1014.9
20260506214606 48 347 0.9 0.9 0.00 0.00 0.00 69 1014.9
20260506213519 48 21 1.7 3.5 0.00 0.00 0.00 69 1014.8
20260506212534 48 25 1.7 3.5 0.00 0.00 0.00 69 1014.8
20260506211609 48 31 1.7 2.6 0.00 0.00 0.00 69 1014.9
20260506210524 49 30 1.7 3.5 0.00 0.00 0.00 68 1014.7
20260506205519 49 20 1.7 2.6 0.00 0.00 0.00 67 1014.7
20260506204534 50 0 0.9 1.7 0.00 0.00 0.00 66 1014.7
20260506203528 50 354 0.9 1.7 0.00 0.00 0.00 66 1014.6
20260506202523 50 355 0.9 1.7 0.00 0.00 0.00 66 1014.5
20260506201518 50 344 0.9 2.6 0.00 0.00 0.00 65 1014.4
20260506200534 50 359 0.9 1.7 0.00 0.00 0.00 65 1014.4
20260506195529 51 350 1.7 2.6 0.00 0.00 0.00 65 1014.4
20260506194526 51 350 1.7 3.5 0.00 0.00 0.00 64 1014.2
20260506193520 51 338 1.7 3.5 0.00 0.00 0.00 63 1014.1
20260506192534 51 339 1.7 2.6 0.00 0.00 0.00 63 1014.0
20260506191528 51 340 3.5 5.2 0.00 0.00 0.00 62 1014.0
20260506190517 52 336 3.5 6.1 0.00 0.00 0.00 62 1013.9
20260506185533 52 337 3.5 7.0 0.00 0.00 0.00 62 1013.7
20260506184529 52 328 4.3 6.1 0.00 0.00 0.00 62 1013.7
20260506183525 52 331 2.6 5.2 0.00 0.00 0.00 63 1013.6
20260506182520 52 330 3.5 7.0 0.00 0.00 0.00 62 1013.7
20260506181537 53 335 2.6 3.5 0.00 0.00 0.00 62 1013.6
20260506180532 53 342 2.6 5.2 0.00 0.00 0.00 61 1013.4
20260506175608 53 352 2.6 5.2 0.00 0.00 0.00 60 1013.3
20260506174524 53 329 4.3 6.1 0.00 0.00 0.00 60 1013.1
20260506173520 53 315 2.6 5.2 0.00 0.00 0.00 60 1013.2
20260506172516 53 323 2.6 5.2 0.00 0.00 0.00 59 1013.1
20260506171531 53 328 2.6 5.2 0.00 0.00 0.00 60 1013.1
20260506170607 54 330 1.7 3.5 0.00 0.00 0.00 59 1013.1
20260506165522 54 347 3.5 5.2 0.00 0.00 0.00 60 1013.2
20260506164518 54 345 2.6 6.1 0.00 0.00 0.00 57 1013.1
20260506163614 55 343 3.5 7.0 0.00 0.00 0.00 56 1013.1
20260506162530 55 3 3.5 7.8 0.00 0.00 0.00 56 1013.1
20260506161526 56 3 4.3 7.0 0.00 0.00 0.00 56 1013.1
20260506160522 55 346 4.3 8.7 0.00 0.00 0.00 55 1013.0
20260506155518 55 3 3.5 7.0 0.00 0.00 0.00 54 1013.2
20260506154534 55 19 3.5 7.8 0.00 0.00 0.00 53 1013.2
20260506153609 55 26 5.2 8.7 0.00 0.00 0.00 55 1013.1
20260506152605 56 12 6.1 8.7 0.00 0.00 0.00 54 1013.2
20260506151602 55 20 4.3 13.0 0.00 0.00 0.00 53 1013.1
20260506150517 56 26 6.1 11.3 0.00 0.00 0.00 50 1013.1
20260506145534 56 7 4.3 7.8 0.00 0.00 0.00 52 1013.2
20260506144530 55 6 5.2 9.6 0.00 0.00 0.00 53 1013.1
20260506143526 57 9 6.1 11.3 0.00 0.00 0.00 50 1013.1
20260506142522 55 333 6.1 9.6 0.00 0.00 0.00 52 1013.0
20260506141518 55 348 6.1 9.6 0.00 0.00 0.00 51 1013.1
20260506140534 57 32 3.5 6.1 0.00 0.00 0.00 49 1013.0
20260506135530 56 332 5.2 8.7 0.00 0.00 0.00 52 1013.1
20260506134526 57 337 7.0 9.6 0.00 0.00 0.00 48 1013.0
20260506133521 56 329 7.0 13.0 0.00 0.00 0.00 51 1013.1
20260506132517 55 39 4.3 9.6 0.00 0.00 0.00 53 1013.0
20260506131533 56 319 7.0 11.3 0.00 0.00 0.00 51 1013.0
20260506130529 56 345 7.0 12.2 0.00 0.00 0.00 49 1013.2
20260506125524 56 343 4.3 9.6 0.00 0.00 0.00 51 1013.2
20260506124520 55 328 5.2 11.3 0.00 0.00 0.00 53 1013.2
20260506123616 56 3 5.2 8.7 0.00 0.00 0.00 50 1013.2
20260506122531 56 1 7.0 12.2 0.00 0.00 0.00 51 1013.2
20260506121528 55 14 6.1 12.2 0.00 0.00 0.00 51 1013.3
20260506120524 55 341 7.8 16.5 0.00 0.00 0.00 52 1013.2
20260506115519 55 334 6.1 13.0 0.00 0.00 0.00 56 1013.3
20260506114534 55 333 5.2 8.7 0.00 0.00 0.00 57 1013.3
20260506113530 55 354 6.1 12.2 0.00 0.00 0.00 57 1013.3
20260506112526 55 14 5.2 8.7 0.00 0.00 0.00 57 1013.5
20260506111521 54 336 5.2 9.6 0.00 0.00 0.00 58 1013.4
20260506110517 54 343 5.2 11.3 0.00 0.00 0.00 57 1013.5
20260506105533 53 348 7.8 11.3 0.00 0.00 0.00 58 1013.5
20260506104529 54 351 5.2 12.2 0.00 0.00 0.00 55 1013.5